Flag for Germany Weather past 2 weeks in Augsburg, Bavaria, Germany

Now
62 °F

Fog.


Feels Like: 62 °F
Forecast: 68 / 90 °F
Wind: 1 mph from South

Location: Augsburg

Current Time: Jul 4, 2015 at 4:49:07 AM

Latest Report: Jul 4, 2015 at 4:00 AM


Visibility: 4 mi

Pressure: 30.20 "Hg

Humidity: 98%

Dew point: 62 °F

Location of AugsburgLocation

Historic Weather in Augsburg — Graph

°F

Augsburg temperature yesterday

Maximum temperature yesterday: 87 °F (at 6:00 PM)
Minimum temperature yesterday: 60 °F (at 3:00 AM)
Average temperature yesterday: 74 °F

Past Weeks' High & Low Weather Summary

 TemperatureHumidityPressure
High87 °F (Jul 3, 6:00 PM)100% (Jun 19, 3:00 AM)30.27 "Hg (Jun 19, 3:00 AM)
Low43 °F (Jun 25, 5:00 AM)39% (Jun 26, 6:00 PM)29.75 "Hg (Jun 22, 10:00 PM)
Average63 °F74%30.10 "Hg
* Reported Jun 19 3:00 AM — Jul 4 3:00 AM, Augsburg, Weather by CustomWeather, © 2015

Note: Actual official high and low records may vary slightly from our data, if they occured in-between our weather recording intervals... More about our weather records

Advertising

Augsburg weather history for previous 24 hours

 ConditionsComfort  
Time TempWeatherWind HumidityBarometerVisibility
3:00 AM
Sat, Jul 4
63 °FClear.1 mph96%30.21 "Hg6 mi
2:00 AM65 °FClear.1 mph93%30.21 "Hg7 mi
1:00 AM67 °FClear.1 mph86%30.20 "Hg10 mi
12:00 AM70 °FOvercast.1 mph78%30.21 "Hg16 mi
10:00 PM
Fri, Jul 3
70 °FOvercast.2 mph86%30.20 "Hg16 mi
9:00 PM74 °FOvercast.2 mph77%30.18 "Hg19 mi
8:00 PM82 °FSunny.2 mph55%30.17 "Hg25 mi
7:00 PM87 °FPassing clouds.3 mph42%30.16 "Hg22 mi
6:00 PM87 °FPartly sunny.3 mph43%30.14 "Hg16 mi
4:00 PM87 °FSunny.2 mph41%30.17 "Hg17 mi
3:00 PM84 °FOvercast.2 mph54%30.19 "Hg11 mi
2:00 PM82 °FOvercast.3 mph61%30.21 "Hg11 mi
1:00 PM82 °FOvercast.1 mph58%30.22 "Hg11 mi
12:00 PM79 °FOvercast.1 mph59%30.23 "Hg14 mi
10:00 AM72 °FLight rain. Overcast.5 mph78%30.22 "Hg8 mi
9:00 AM74 °FOvercast.2 mph72%30.24 "Hg6 mi
8:00 AM71 °FSunny.1 mph74%30.23 "Hg6 mi
7:00 AM66 °FSunny.No wind85%30.23 "Hg5 mi
6:00 AM62 °FSunny.No wind90%30.24 "Hg7 mi
4:00 AM61 °FOvercast.1 mph94%30.22 "Hg6 mi
Weather by CustomWeather, © 2015

See weather overviewHow to use our weather pages